Location: Newark
(37.8333°N, 119.5000°W)
Time: 08:16:32
(UTC+00:00)

Tiros 1 despin weight - Pass Details

Date: 25 August 2019
Orbit: 594 x 642 km, 48.2° (Epoch: 19 September)

Event Time Altitude Azimuth Distance (km) Brightness Sun altitude
Rises 09:12:43 0° 294° (WNW) 2,848 - -38.5°
Reaches altitude 10° 09:15:28 10° 310° (NW) 1,952 - -38.3°
Maximum altitude 09:18:55 21° 1° (N) 1,365 - -38.0°
Exits shadow 09:21:49 13° 46° (NE) 1,806 ? -37.8°
Drops below altitude 10° 09:22:25 10° 52° (NE) 1,975 ? -37.7°
Sets 09:25:13 0° 68° (ENE) 2,890 ? -37.5°
